1326588634107,0.000155266
1326588694107,0.000156425
1326588754107,0.000156457
1326588814107,0.000157911
1326588874107,0.000157730
1326592234117,0.000157734
1326592294117,0.000155186
1326592354117,0.000155626
1326592414117,0.000157453
1326592474117,0.000156807
1326595834128,0.000155813
1326595894128,0.000158631
1326595954128,0.000157215
1326596014128,0.000157380
1326596074128,0.000158110
1326599434138,0.000155092
1326599494138,0.000155038
1326599554138,0.000155814
1326599614138,0.000153813
1326599674138,0.000154554
1326603034149,0.000156102
1326603094149,0.000157351
1326603154149,0.000156430
1326603214149,0.000155673
1326603274149,0.000154689
1326606634160,0.000157844
1326606694160,0.000157396
1326606754160,0.000158373
1326606814160,0.000158638
1326606874160,0.000160034
1326610234171,0.000157655
1326610294171,0.000157459
1326610354171,0.000156089
1326610414171,0.000154688
1326610474171,0.000155441
1326613834182,0.000157877
1326613894182,0.000157555
1326613954182,0.000157123
1326614014182,0.000155584
1326614074182,0.000154570
1326617434194,0.000154846
1326617494194,0.000154771
1326617554194,0.000153744
1326617614194,0.000153119
1326617674194,0.000153898
1326621034205,0.000159765
1326621094205,0.000157655
1326621154205,0.000157663
1326621214205,0.000156568
1326621274205,0.000154659
1326624634217,0.000155148
1326624694217,0.000154921
1326624754217,0.000152525
1326624814217,0.000154753
1326624874217,0.000155355
1326628234229,0.000158051
1326628294229,0.000155745
1326628354229,0.000157569
1326628414229,0.000156680
1326628474229,0.000155559
1326631834241,0.000152122
1326631894241,0.000152631
1326631954241,0.000152840
1326632014241,0.000154571
1326632074241,0.000153448
1326635434252,0.000154088
1326635494252,0.000151592
1326635554252,0.000151921
1326635614252,0.000153914
1326635674252,0.000153089
1326635734252,0.000153250
1326635794252,0.000152904
1326635854252,0.000151944
1326635914252,0.000152271
1326635974252,0.000152986
1326636034264,0.000152861
1326636094264,0.000152709
1326636154264,0.000153430
1326636214264,0.000153010
1326636274264,0.000152590
1326636334264,0.000153618
1326636394264,0.000154139
1326636454264,0.000152944
1326636514264,0.000153831
1326636574264,0.000154089
1326636634264,0.000153308
1326636694264,0.000153665
1326636754264,0.000154413
1326636814264,0.000153637
1326636874264,0.000153698
1326636934264,0.000153004
1326636994264,0.000155225
1326637054264,0.000155538
1326637114264,0.000154504
1326637174264,0.000156294
1326637234264,0.000153920
1326637294264,0.000151939
1326637354264,0.000154255
1326637414264,0.000156430
1326637474264,0.000154038
1326637534264,0.000154412
1326637594264,0.000155403
1326637654264,0.000154647
1326637714264,0.000154993
1326637774264,0.000154520
1326637834264,0.000154633
1326637894264,0.000154095
1326637954264,0.000152290
1326638014264,0.000154636
1326638074264,0.000154791
1326638134264,0.000154062
1326638194264,0.000153571
1326638254264,0.000152650
1326638314264,0.000152724
1326638374264,0.000153783
1326638434264,0.000154408
1326638494264,0.000154052
1326638554264,0.000154945
1326638614264,0.000153196
1326638674264,0.000154366
1326638734264,0.000154333
1326638794264,0.000154233
1326638854264,0.000156362
1326638914264,0.000159098
1326638974264,0.000157399
1326639034264,0.000157122
1326639094264,0.000157182
1326639154264,0.000158415
1326639214264,0.000160136
1326639274264,0.000158889
1326639334264,0.000157794
1326639394264,0.000157700
1326639454264,0.000157681
1326639514264,0.000157214
1326639574264,0.000155293
1326639634276,0.000155106
1326639694276,0.000153869
1326639754276,0.000153978
1326639814276,0.000154826
1326639874276,0.000154512
1326639934276,0.000156517
1326639994276,0.000155344
1326640054276,0.000154524
1326640114276,0.000154245
1326640174276,0.000154855
1326640234276,0.000153327
1326640294276,0.000153376
1326640354276,0.000155306
1326640414276,0.000155109
1326640474276,0.000155341
1326640534276,0.000154355
1326640594276,0.000155684
1326640654276,0.000153583
1326640714276,0.000157272
1326640774276,0.000155114
1326640834276,0.000156484
1326640894276,0.000156642
1326640954276,0.000155536
1326641014276,0.000156043
1326641074276,0.000156618
1326641134276,0.000155460
1326641194276,0.000154388
1326641254276,0.000155558
1326641314276,0.000154840
1326641374276,0.000155275
1326641434276,0.000154221
1326641494276,0.000153975
1326641554276,0.000156084
1326641614276,0.000154172
1326641674276,0.000154321
1326641734276,0.000152188
1326641794276,0.000154834
1326641854276,0.000154205
1326641914276,0.000153885
1326641974276,0.000153851
1326642034276,0.000152388
1326642094276,0.000152307
1326642154276,0.000153443
1326642214276,0.000152395
1326642274276,0.000154102
1326642334276,0.000154292
1326642394276,0.000154487
1326642454276,0.000152987
1326642514276,0.000154811
1326642574276,0.000154405
1326642634276,0.000152701
1326642694276,0.000153044
1326642754276,0.000153456
1326642814276,0.000152653
1326642874276,0.000154750
1326642934276,0.000154845
1326642994276,0.000154885
1326643054276,0.000153101
1326643114276,0.000153370
1326643174276,0.000152938
1326643234288,0.000154258
1326643294288,0.000154049
1326643354288,0.000155443
1326643414288,0.000156295
1326643474288,0.000155219
1326643534288,0.000154257
1326643594288,0.000154270
1326643654288,0.000154826
1326643714288,0.000155211
1326643774288,0.000154417
1326643834288,0.000155371
1326643894288,0.000155606
1326643954288,0.000153771
1326644014288,0.000154316
1326644074288,0.000154502
1326644134288,0.000154523
1326644194288,0.000154152
1326644254288,0.000153178
1326644314288,0.000152581
1326644374288,0.000154270
1326644434288,0.000154672
1326644494288,0.000152822
1326644554288,0.000154336
1326644614288,0.000154276
1326644674288,0.000154892
1326644734288,0.000155765
1326644794288,0.000155786
1326644854288,0.000156099
1326644914288,0.000156189
1326644974288,0.000155969
1326645034288,0.000156822
1326645094288,0.000156456
1326645154288,0.000154460
1326645214288,0.000155119
1326645274288,0.000154652
1326645334288,0.000153204
1326645394288,0.000155236
1326645454288,0.000154913
1326645514288,0.000154555
1326645574288,0.000153174
1326645634288,0.000154138
1326645694288,0.000153967
1326645754288,0.000155107
1326645814288,0.000154898
1326645874288,0.000153494
1326645934288,0.000152781
1326645994288,0.000155268
1326646054288,0.000154938
1326646114288,0.000151980
1326646174288,0.000153023
1326646234288,0.000153903
1326646294288,0.000154318
1326646354288,0.000155217
1326646414288,0.000155262
1326646474288,0.000154675
1326649834299,0.000153527
1326649894299,0.000154456
1326649954299,0.000153694
1326650014299,0.000153605
1326650074299,0.000152778
1326653434311,0.000153489
1326653494311,0.000155234
1326653554311,0.000155222
1326653614311,0.000155849
1326653674311,0.000156478
1326657034322,0.000156184
1326657094322,0.000156562
1326657154322,0.000154395
1326657214322,0.000154625
1326657274322,0.000154307
1326660634333,0.000154973
1326660694333,0.000157929
1326660754333,0.000157633
1326660814333,0.000155571
1326660874333,0.000156224
1326664234344,0.000157252
1326664294344,0.000156813
1326664354344,0.000156742
1326664414344,0.000157235
1326664474344,0.000158655
1326667834355,0.000156848
1326667894355,0.000156344
1326667954355,0.000154967
1326668014355,0.000157484
1326668074355,0.000157044
1326671434366,0.000156985
1326671494366,0.000154284
1326671554366,0.000156137
1326671614366,0.000155613
1326671674366,0.000155972
